This is the latest recevied weather packets stored in our database for station/object N0RPM-13. If no packets are shown the sender has not sent any weather packets the latest 10 day(s).
| Time | Temp. | Humidity | Pressure | Rain* | Wind** | Luminosity | Snow |
|---|---|---|---|---|---|---|---|
| 1788556458 | 31.11° C | 60% | 1013.1 hPa | 0 mm | - | 497 W/m² | - |
| 1788556154 | 31.11° C | 61% | 1012.8 hPa | 0 mm | - | 517 W/m² | - |
| 1788555853 | 31.11° C | 60% | 1012.9 hPa | 0 mm | - | 527 W/m² | - |
| 1788555549 | 30.56° C | 61% | 1013 hPa | 0 mm | - | 551 W/m² | - |
| 1788555244 | 30.56° C | 62% | 1012.8 hPa | 0 mm | - | 560 W/m² | - |
| 1788554941 | 31.11° C | 61% | 1012.9 hPa | 0 mm | - | 574 W/m² | - |
| 1788554637 | 31.11° C | 61% | 1012.9 hPa | 0 mm | - | 579 W/m² | - |
| 1788554333 | 30.56° C | 62% | 1012.9 hPa | 0 mm | - | 598 W/m² | - |
| 1788554029 | 31.11° C | 61% | 1013 hPa | 0 mm | - | 616 W/m² | - |
| 1788553724 | 31.11° C | 61% | 1012.8 hPa | 0 mm | - | 622 W/m² | - |
| 1788553420 | 31.11° C | 62% | 1013.1 hPa | 0 mm | - | 622 W/m² | - |
| 1788553116 | 31.11° C | 62% | 1012.8 hPa | 0 mm | - | 642 W/m² | - |
| 1788552816 | 31.11° C | 63% | 1012.8 hPa | 0 mm | - | 652 W/m² | - |
| 1788552511 | 30.56° C | 63% | 1013 hPa | 0 mm | - | 660 W/m² | - |
| 1788552210 | 30° C | 65% | 1012.9 hPa | 0 mm | - | 579 W/m² | - |
| 1788551905 | 30.56° C | 64% | 1013.3 hPa | 0 mm | - | 681 W/m² | - |
| 1788551603 | 30.56° C | 64% | 1013.2 hPa | 0 mm | - | 707 W/m² | - |
| 1788551324 | 30.56° C | 64% | 1013.1 hPa | 0 mm | - | 727 W/m² | - |
| 1788550997 | 30.56° C | 65% | 1013 hPa | 0 mm | - | 690 W/m² | - |
| 1788550693 | 30° C | 66% | 1013 hPa | 0 mm | - | 702 W/m² | - |
| 1788550388 | 30° C | 65% | 1013.1 hPa | 0 mm | - | 712 W/m² | - |
| 1788550083 | 30° C | 67% | 1013 hPa | 0 mm | - | 515 W/m² | - |
| 1788549778 | 30° C | 66% | 1013 hPa | 0 mm | - | 761 W/m² | - |
| 1788549475 | 30° C | 66% | 1013 hPa | 0 mm | - | 767 W/m² | - |
| 1788549171 | 29.44° C | 67% | 1013.2 hPa | 0 mm | - | 824 W/m² | - |
* Rain latest hour (hover to see other rain measurements)
** Current wind speed in m/s (hover to see current wind gust speed)